星链-36985(STARLINK-36985)

导读

STARLINK-36985(NORAD编号68014)是SpaceX星链(Starlink)卫星星座的成员之一,属于第二代星链卫星,主要承担全球低轨宽带互联网覆盖服务,可支持流媒体、在线游戏、高清视频通话等应用。作为SpaceX大规模星座部署的一部分,它配备氩气离子推进系统与相控阵天线,具备轨道机动能力,当前纳入SpaceX 2026年降轨计划,将从550公里轨道降至480公里,旨在提升太空安全,减少碰撞风险与轨道碎片,避免凯斯勒效应的潜在威胁,助力近地轨道可持续利用。

基本信息
目录编号:
68014
目录名称:
STARLINK-36985
国际标识:
2026-039AE
轨道中心:
EARTH
卫星名称:
星链-36985
卫星全名:
星链-36985(STARLINK-36985)
卫星状态:
在轨 (已飞行196 天)
发射日期:
2026-02-27 UTC
国别 :
美国 (US)
星等 :
--
该卫星已列入 空间交会检测服务 Space Conjunction Data Service (SCDS) ,当前飞行风险评估等级: 高风险
轨道信息
数据来源 国际轨道数据
星历时间: 2026-09-11T04:16:08+0800
16小时前
查看轨道信息
半长轴: 6861.144km
偏心率: 0.0002101
轨道倾角: 43.005°
近地点辐角 354.984°
升交点赤经 82.978°
平近点角 5.099°
近地点: 481.565km
远地点: 484.449km
周期: 94.266分钟
每日圈数: 15.275942
详细信息
固有亮度:
5
最大亮度:
2.5
卫星平台:
Starlink V1.0
覆盖范围:
全球
运营商:
太空探索技术公司
运营商所在国:
美国
制造商(研发单位):
太空探索技术公司
制造商所在国:
美国
使用方式:
暂无
卫星简介
Starlink 计划是 SpaceX 推出的全球卫星互联网项目,通过发射低轨道卫星,为全球尤其是偏远地区提供高速、低延迟的互联网服务。自 2019 年起,Starlink 已部署数千颗卫星,旨在缩小全球数字鸿沟,推动互联网普及。该项目还为军事、航空等行业提供通信支持,带来广泛经济效益。
2D轨道图
3D轨道图
轨道高度分析图
轨道倾角分析图
轨道综合分析图
查看轨道综合分析图
交会数据列表
事件ID 空间交会对象 最接近时刻(TCA) 交会距离 交会风险概率(CRP) 交会风险指数(CRI) 操作
CDM_260912-003706-219906-801421
2026-09-12T
00:37:01+0000
0.078 km
近距离
1.256902E-3 极高风险 0.97
CDM_260913-000806-346206-801421
2026-09-13T
00:08:34+0000
0.769 km
远距离
4.933031E-5 中风险 0.69
CDM_260912-021106-219906-801421
2026-09-12T
02:11:10+0000
0.806 km
远距离
4.217521E-5 中风险 0.68
CDM_260912-223406-346206-801421
2026-09-12T
22:34:25+0000
0.893 km
远距离
3.0362E-5 中风险 0.65
CDM_260911-230206-219906-801421
2026-09-11T
23:02:52+0000
0.933 km
远距离
2.594882E-5 中风险 0.63
CDM_260913-045306-434406-801421
2026-09-13T
04:53:28+0000
0.984 km
远距离
2.518737E-5 中风险 0.63
CDM_260913-161805-818706-801421
2026-09-13T
16:18:14+0000
1.000 km
极远距离
1.703384E-5 中风险 0.6
CDM_260913-175205-818706-801421
2026-09-13T
17:52:23+0000
1.348 km
极远距离
6.102869E-6 低风险 0.51
CDM_260912-132106-767606-801421
2026-09-12T
13:21:29+0000
1.598 km
极远距离
5.053702E-6 低风险 0.49
CDM_260912-034506-219906-801421
2026-09-12T
03:45:19+0000
1.672 km
极远距离
3.648694E-6 低风险 0.46
与全量物体交会距离演化趋势
与全量物体交会风险概率演化趋势